Weather History for La Porte, IN

Change the Weather History Date:

Saturday, December 1, 2012

  Actual Average (KVPZ) Record (KVPZ)
Temperature  
Mean Temperature 42 °F 33 °F  
Max Temperature 57 °F 54 °F 60 °F (2012)
Min Temperature 28 °F 26 °F 12 °F (2002)
Degree Days  
Heating Degree Days 22 32  
Month to date heating degree days 32  
Since 1 July heating degree days 1290  
Cooling Degree Days 0 0  
Month to date cooling degree days 0  
Year to date cooling degree days 713  
Moisture  
Dew Point 40 °F    
Average Humidity 79    
Maximum Humidity 99    
Minimum Humidity 62    
Precipitation  
Precipitation 0.00 in 0.09 in 0.48 in (2006)
Month to date precipitation 0.09  
Year to date precipitation 35.42  
Sea Level Pressure  
Sea Level Pressure 30.06 in    
Wind  
Wind Speed 7 mph ()    
Max Wind Speed 17 mph    
Max Gust Speed 24 mph    
Visibility 7.9 miles    
Events      
T = Trace of Precipitation, MM = Missing Value Source: Averaged Metar Reports

Daily Weather History Graph

Daily Weather History Graph

Search for Another Location

Airport:

Trip Planner

Search our weather history database for the weather conditions in past years. The results will help you decide how hot, cold, wet, or windy it might be!

Date:

Astronomy

Dec. 01, 2012 Rise Set
Actual Time 6:54 AM CST 4:17 PM CST
Civil Twilight 6:23 AM CST 4:48 PM CST
Nautical Twilight 5:49 AM CST 5:22 PM CST
Astronomical Twilight 5:15 AM CST 5:56 PM CST
Moon 7:07 PM CST (12/1) 9:06 AM CST (12/1)
Length of Visible Light 10h 24m
Length of Day
9h 22m
Waning Gibbous, 91% of the Moon is Illuminated
Dec 1
Waning Gibbous
Dec 6
Last Quarter
Dec 13
New
Dec 19
First Quarter
Dec 28
Full

Hourly Weather History & Observations

Time (CST) Temp. Windchill Dew Point Humidity Pressure Visibility Wind Dir Wind Speed Gust Speed Precip Events Conditions
12:15 AM 34.2 °F 31.2 °F 30.0 °F 85% 30.15 in 10.0 mi ESE 3.5 mph - N/A   Clear
12:35 AM 32.0 °F 28.7 °F 28.2 °F 86% 30.16 in 10.0 mi East 3.5 mph - N/A   Clear
12:55 AM 32.0 °F 28.7 °F 28.4 °F 87% 30.16 in 10.0 mi East 3.5 mph - N/A   Clear
1:15 AM 31.6 °F 28.3 °F 29.7 °F 92% 30.15 in 7.0 mi East 3.5 mph - N/A   Clear
1:35 AM 31.6 °F 27.0 °F 29.7 °F 92% 30.15 in 7.0 mi East 4.6 mph - N/A   Clear
1:55 AM 30.6 °F 25.8 °F 28.6 °F 92% 30.14 in 7.0 mi ESE 4.6 mph - N/A   Clear
2:15 AM 31.3 °F 26.6 °F 28.9 °F 91% 30.15 in 7.0 mi East 4.6 mph - N/A   Clear
2:55 AM 32.0 °F 26.4 °F 30.4 °F 94% 30.15 in 7.0 mi ESE 5.8 mph - N/A   Scattered Clouds
3:15 AM 29.5 °F 25.9 °F 27.1 °F 91% 30.15 in 7.0 mi East 3.5 mph - N/A   Scattered Clouds
3:35 AM 28.9 °F 25.2 °F 27.0 °F 92% 30.16 in 7.0 mi East 3.5 mph - N/A   Scattered Clouds
4:15 AM 30.9 °F 26.2 °F 30.0 °F 96% 30.16 in 7.0 mi East 4.6 mph - N/A   Scattered Clouds
4:35 AM 29.3 °F 23.2 °F 27.3 °F 92% 30.15 in 7.0 mi East 5.8 mph - N/A   Clear
4:55 AM 28.9 °F 21.1 °F 27.5 °F 94% 30.14 in 7.0 mi East 8.1 mph - N/A   Scattered Clouds
5:15 AM 30.2 °F 26.7 °F 29.1 °F 96% 30.15 in 7.0 mi ESE 3.5 mph - N/A   Mostly Cloudy
5:35 AM 29.8 °F 23.9 °F 28.4 °F 94% 30.14 in 7.0 mi ESE 5.8 mph - N/A   Scattered Clouds
6:15 AM 29.5 °F - 28.4 °F 96% 30.15 in 5.0 mi Calm Calm - N/A   Clear
6:35 AM 31.6 °F 28.3 °F 30.7 °F 96% 30.15 in 5.0 mi ESE 3.5 mph - N/A   Clear
6:55 AM 30.2 °F 25.4 °F 29.1 °F 96% 30.15 in 5.0 mi ESE 4.6 mph - N/A   Clear
7:15 AM 31.5 °F 28.1 °F 30.7 °F 97% 30.15 in 4.0 mi ESE 3.5 mph - N/A   Clear
7:35 AM 32.4 °F 29.1 °F 32.0 °F 99% 30.15 in 5.0 mi East 3.5 mph - N/A   Clear
7:55 AM 32.4 °F 27.9 °F 32.0 °F 99% 30.15 in 3.0 mi ESE 4.6 mph - N/A   Clear
8:15 AM 35.8 °F 33.0 °F 34.9 °F 97% 30.15 in 3.0 mi SE 3.5 mph - N/A   Clear
8:35 AM 37.9 °F 34.4 °F 36.0 °F 93% 30.15 in 4.0 mi SSE 4.6 mph - N/A   Clear
9:15 AM 42.3 °F 37.3 °F 38.5 °F 86% 30.14 in 5.0 mi South 8.1 mph - N/A   Clear
9:35 AM 44.1 °F 39.0 °F 39.7 °F 85% 30.14 in 5.0 mi South 9.2 mph - N/A   Clear
10:15 AM 47.8 °F - 41.2 °F 78% 30.13 in 5.0 mi South 12.7 mph - N/A   Haze
10:35 AM 49.3 °F - 41.9 °F 76% 30.11 in 5.0 mi South 11.5 mph 17.3 mph N/A   Haze
10:55 AM 50.4 °F - 42.8 °F 75% 30.10 in 7.0 mi South 10.4 mph 18.4 mph N/A   Clear
11:15 AM 51.8 °F - 43.7 °F 74% 30.09 in 7.0 mi South 10.4 mph - N/A   Clear
11:35 AM 52.9 °F - 44.1 °F 72% 30.08 in 7.0 mi South 10.4 mph 17.3 mph N/A   Clear
12:15 PM 55.0 °F - 46.4 °F 73% 30.05 in 7.0 mi South 9.2 mph - N/A   Scattered Clouds
12:35 PM 55.9 °F - 47.1 °F 72% 30.04 in 7.0 mi South 8.1 mph - N/A   Scattered Clouds
12:55 PM 55.6 °F - 47.5 °F 74% 30.04 in 7.0 mi South 9.2 mph - N/A   Overcast
1:15 PM 57.0 °F - 48.2 °F 72% 30.04 in 7.0 mi SSW 8.1 mph 17.3 mph N/A   Overcast
1:35 PM 56.8 °F - 48.2 °F 73% 30.03 in 7.0 mi South 11.5 mph - N/A   Overcast
2:15 PM 57.6 °F - 47.8 °F 70% 30.02 in 7.0 mi South 11.5 mph 19.6 mph N/A   Mostly Cloudy
2:35 PM 57.6 °F - 47.8 °F 70% 30.02 in 7.0 mi South 9.2 mph 16.1 mph N/A   Mostly Cloudy
2:55 PM 57.6 °F - 47.8 °F 70% 30.01 in 10.0 mi South 9.2 mph 16.1 mph N/A   Overcast
3:15 PM 57.6 °F - 47.8 °F 70% 30.01 in 10.0 mi South 8.1 mph - N/A   Mostly Cloudy
3:35 PM 57.6 °F - 48.2 °F 71% 30.01 in 10.0 mi South 9.2 mph - N/A   Mostly Cloudy
4:15 PM 57.6 °F - 48.6 °F 72% 30.00 in 10.0 mi South 8.1 mph - N/A   Scattered Clouds
4:35 PM 57.4 °F - 48.4 °F 72% 29.99 in 10.0 mi South 10.4 mph - N/A   Clear
4:55 PM 57.4 °F - 48.4 °F 72% 30.00 in 10.0 mi South 8.1 mph - N/A   Clear
5:15 PM 56.8 °F - 48.2 °F 73% 29.99 in 10.0 mi South 10.4 mph - N/A   Clear
5:35 PM 57.2 °F - 47.8 °F 71% 29.99 in 10.0 mi South 9.2 mph - N/A   Mostly Cloudy
5:55 PM 57.2 °F - 47.8 °F 71% 29.99 in 10.0 mi South 12.7 mph 16.1 mph N/A   Overcast
6:15 PM 57.2 °F - 47.5 °F 70% 29.99 in 10.0 mi SSW 11.5 mph 16.1 mph N/A   Overcast
6:35 PM 57.4 °F - 47.3 °F 69% 29.99 in 10.0 mi South 10.4 mph 16.1 mph N/A   Overcast
6:55 PM 57.2 °F - 47.1 °F 69% 29.99 in 10.0 mi South 12.7 mph 17.3 mph N/A   Mostly Cloudy
7:15 PM 57.0 °F - 46.9 °F 69% 29.99 in 10.0 mi SSW 11.5 mph 18.4 mph N/A   Mostly Cloudy
7:35 PM 57.2 °F - 46.8 °F 68% 29.98 in 10.0 mi SSW 15.0 mph 20.7 mph N/A   Overcast
7:55 PM 56.8 °F - 46.6 °F 69% 29.98 in 10.0 mi SSW 15.0 mph 21.9 mph N/A   Mostly Cloudy
8:15 PM 56.7 °F - 46.4 °F 69% 29.98 in 10.0 mi SSW 15.0 mph 24.2 mph N/A   Overcast
8:35 PM 56.3 °F - 46.4 °F 69% 29.99 in 10.0 mi SSW 17.3 mph 21.9 mph N/A   Overcast
8:55 PM 56.7 °F - 46.2 °F 68% 29.98 in 10.0 mi SSW 15.0 mph 21.9 mph N/A   Overcast
9:15 PM 56.8 °F - 45.9 °F 67% 29.98 in 10.0 mi SSW 13.8 mph 23.0 mph N/A   Overcast
9:35 PM 56.8 °F - 45.5 °F 66% 29.98 in 10.0 mi SSW 13.8 mph 19.6 mph N/A   Overcast
9:55 PM 57.2 °F - 45.5 °F 65% 29.98 in 10.0 mi SSW 12.7 mph 19.6 mph N/A   Overcast
10:15 PM 57.2 °F - 45.5 °F 65% 29.97 in 10.0 mi SSW 13.8 mph 21.9 mph N/A   Overcast
10:35 PM 57.4 °F - 45.5 °F 65% 29.97 in 10.0 mi SSW 16.1 mph 21.9 mph N/A   Overcast
10:55 PM 57.4 °F - 45.1 °F 64% 29.96 in 10.0 mi SSW 13.8 mph 23.0 mph N/A   Overcast
11:15 PM 57.4 °F - 45.0 °F 63% 29.96 in 10.0 mi SSW 15.0 mph 23.0 mph N/A   Overcast
11:35 PM 57.6 °F - 45.0 °F 63% 29.96 in 10.0 mi SSW 15.0 mph 21.9 mph N/A   Overcast
11:55 PM 57.7 °F - 44.8 °F 62% 29.95 in 10.0 mi SSW 15.0 mph 20.7 mph N/A   Overcast